timestamp,surface_pressure_avg,surface_temp_avg,battery_voltage,lat,long
2022-02-26 00:09:00+00:00,215.2898,1.4,12.17,47.84626,-54.09684
2022-02-26 00:19:00+00:00,207.2831,1.4,12.17,47.84626,-54.09684
2022-02-26 00:29:00+00:00,210.8281,1.4,12.17,47.84626,-54.09684
2022-02-26 00:39:00+00:00,216.4264,1.4,12.17,47.84626,-54.09684
2022-02-26 00:49:00+00:00,211.3081,1.4,12.17,47.84626,-54.09684
2022-02-26 00:59:00+00:00,203.5348,1.3,12.17,47.84626,-54.09684
2022-02-26 01:09:00+00:00,204.0881,1.3,12.17,47.84626,-54.09684
2022-02-26 01:19:00+00:00,203.8365,1.3,12.17,47.84626,-54.09684
2022-02-26 01:29:00+00:00,198.8131,1.29,12.17,47.84626,-54.09684
2022-02-26 01:39:00+00:00,202.8882,1.2,12.17,47.84626,-54.09684
2022-02-26 01:49:00+00:00,215.7181,1.1,12.17,47.84626,-54.09684
2022-02-26 01:59:00+00:00,227.1464,1.15,12.17,47.84626,-54.09684
2022-02-26 02:09:00+00:00,235.1298,1.1,12.17,47.84626,-54.09684
2022-02-26 02:19:01+00:00,239.3864,1.09,12.17,47.84626,-54.09684
2022-02-26 02:29:01+00:00,231.5815,1.1,12.17,47.84626,-54.09684
2022-02-26 02:39:01+00:00,225.2398,1.0,12.17,47.84626,-54.09684
2022-02-26 02:49:01+00:00,231.3564,0.9,12.17,47.84626,-54.09684
2022-02-26 02:59:01+00:00,228.8098,0.5,12.17,47.84626,-54.09684
2022-02-26 03:09:01+00:00,225.9681,0.55,12.17,47.84626,-54.09684
2022-02-26 03:19:01+00:00,240.6364,0.72,12.17,47.84626,-54.09684
2022-02-26 03:29:01+00:00,254.7864,1.2,12.17,47.84626,-54.09684
2022-02-26 03:39:01+00:00,256.7997,1.29,12.17,47.84626,-54.09684
2022-02-26 03:49:01+00:00,258.623,1.3,12.17,47.84626,-54.09684
2022-02-26 03:59:01+00:00,268.0614,1.3,12.17,47.84626,-54.09684
2022-02-26 04:09:01+00:00,273.4364,1.38,12.17,47.84626,-54.09684
2022-02-26 04:19:00+00:00,270.8297,1.39,12.17,47.84626,-54.09684
2022-02-26 04:29:00+00:00,270.4431,1.4,12.17,47.84626,-54.09684
2022-02-26 04:39:00+00:00,272.0281,1.4,12.17,47.84626,-54.09684
2022-02-26 04:49:00+00:00,282.853,1.39,12.17,47.84626,-54.09684
2022-02-26 04:59:00+00:00,288.1797,1.4,12.17,47.84626,-54.09684
2022-02-26 05:09:00+00:00,291.923,1.4,12.17,47.84626,-54.09684
2022-02-26 05:19:00+00:00,299.1413,1.4,12.17,47.84626,-54.09684
2022-02-26 05:29:00+00:00,314.6896,1.4,12.17,47.84626,-54.09684
2022-02-26 05:39:00+00:00,321.3296,1.4,12.17,47.84626,-54.09684
2022-02-26 05:49:00+00:00,317.3514,1.42,12.17,47.84626,-54.09684
2022-02-26 05:59:00+00:00,322.0263,1.4,12.17,47.84626,-54.09684
2022-02-26 06:09:00+00:00,318.6496,1.4,12.17,47.84626,-54.09684
2022-02-26 06:19:01+00:00,317.5413,1.4,12.17,47.84626,-54.09684
2022-02-26 06:29:01+00:00,313.2064,1.4,12.17,47.84626,-54.09684
2022-02-26 06:39:01+00:00,318.9397,1.4,12.17,47.84626,-54.09684
2022-02-26 06:49:01+00:00,340.0646,1.3,12.17,47.84626,-54.09684
2022-02-26 06:59:01+00:00,338.2664,0.94,12.17,47.84626,-54.09684
2022-02-26 07:09:01+00:00,329.038,0.7,12.17,47.84626,-54.09684
2022-02-26 07:19:00+00:00,323.7396,0.7,12.09,47.84626,-54.09684
2022-02-26 07:29:00+00:00,323.2847,0.7,12.09,47.84626,-54.09684
2022-02-26 07:39:00+00:00,331.0963,0.7,12.09,47.84626,-54.09684
2022-02-26 07:49:00+00:00,334.6363,0.7,12.09,47.84626,-54.09684
2022-02-26 07:59:00+00:00,341.603,0.76,12.09,47.84626,-54.09684
2022-02-26 08:09:00+00:00,340.843,0.79,12.09,47.84626,-54.09684
2022-02-26 08:19:01+00:00,344.7679,0.79,12.09,47.84626,-54.09684
2022-02-26 08:29:01+00:00,354.2262,0.7,12.09,47.84626,-54.09684
2022-02-26 08:39:01+00:00,353.9797,0.7,12.09,47.84626,-54.09684
2022-02-26 08:49:01+00:00,345.0062,0.69,12.09,47.84626,-54.09684
2022-02-26 08:59:01+00:00,334.6447,0.6,12.09,47.84626,-54.09684
2022-02-26 09:09:01+00:00,329.0714,0.65,12.09,47.84626,-54.09684
2022-02-26 09:19:00+00:00,327.8546,0.64,12.09,47.84626,-54.09684
2022-02-26 09:29:00+00:00,317.6963,0.66,12.09,47.84626,-54.09684
2022-02-26 09:39:00+00:00,315.5229,0.65,12.09,47.84626,-54.09684
2022-02-26 09:49:00+00:00,313.903,0.61,12.09,47.84626,-54.09684
2022-02-26 09:59:00+00:00,308.078,0.69,12.09,47.84626,-54.09684
2022-02-26 10:09:00+00:00,303.538,0.97,12.09,47.84626,-54.09684
2022-02-26 10:19:00+00:00,296.2247,1.0,12.09,47.84626,-54.09684
2022-02-26 10:29:00+00:00,291.5114,1.1,12.09,47.84626,-54.09684
2022-02-26 10:39:00+00:00,278.1281,1.12,12.09,47.84626,-54.09684
2022-02-26 10:49:00+00:00,269.3414,1.06,12.09,47.84626,-54.09684
2022-02-26 10:59:00+00:00,264.3098,1.11,12.09,47.84626,-54.09684
2022-02-26 11:09:00+00:00,264.1064,1.17,12.09,47.84626,-54.09684
2022-02-26 11:19:00+00:00,261.8898,1.2,12.09,47.84626,-54.09684
2022-02-26 11:29:00+00:00,260.5948,1.2,12.09,47.84626,-54.09684
2022-02-26 11:39:00+00:00,254.2131,1.2,12.09,47.84626,-54.09684
2022-02-26 11:49:00+00:00,250.2547,1.2,12.09,47.84626,-54.09684
2022-02-26 11:59:00+00:00,248.9831,1.26,12.09,47.84626,-54.09684
2022-02-26 12:09:00+00:00,246.7181,1.27,12.09,47.84626,-54.09684
2022-02-26 12:19:00+00:00,238.6248,1.2,12.09,47.84626,-54.09684
2022-02-26 12:29:00+00:00,235.7464,1.27,12.09,47.84626,-54.09684
2022-02-26 12:39:00+00:00,238.1097,1.3,12.09,47.84626,-54.09684
2022-02-26 12:49:00+00:00,235.4914,1.23,12.09,47.84626,-54.09684
2022-02-26 12:59:00+00:00,232.558,1.23,12.09,47.84626,-54.09684
2022-02-26 13:09:00+00:00,239.7548,1.2,12.09,47.84626,-54.09684
2022-02-26 13:19:00+00:00,246.9814,0.9,12.09,47.84626,-54.09684
2022-02-26 13:29:00+00:00,234.5031,0.87,12.09,47.84626,-54.09684
2022-02-26 13:39:00+00:00,226.8264,0.9,12.09,47.84626,-54.09684
2022-02-26 13:49:00+00:00,236.6564,1.08,12.09,47.84626,-54.09684
2022-02-26 13:59:00+00:00,233.7281,1.2,12.09,47.84626,-54.09684
2022-02-26 14:09:00+00:00,221.9948,1.09,12.09,47.84626,-54.09684
2022-02-26 14:19:00+00:00,230.1664,1.0,12.09,47.84626,-54.09684
2022-02-26 14:29:00+00:00,242.0297,1.0,12.09,47.84626,-54.09684
2022-02-26 14:39:00+00:00,229.0598,1.0,12.09,47.84626,-54.09684
2022-02-26 14:49:00+00:00,218.0664,1.0,12.09,47.84626,-54.09684
2022-02-26 14:59:00+00:00,234.5114,1.09,12.09,47.84626,-54.09684
2022-02-26 15:09:00+00:00,236.7247,1.19,12.09,47.84626,-54.09684
2022-02-26 15:19:01+00:00,221.1432,1.1,12.09,47.84626,-54.09684
2022-02-26 15:29:01+00:00,222.0548,1.09,12.09,47.84626,-54.09684
2022-02-26 15:39:01+00:00,240.9531,1.2,12.09,47.84626,-54.09684
2022-02-26 15:49:01+00:00,238.4514,1.22,12.09,47.84626,-54.09684
2022-02-26 15:59:01+00:00,227.5131,1.27,12.09,47.84626,-54.09684
2022-02-26 16:09:01+00:00,239.3148,1.29,12.09,47.84626,-54.09684
2022-02-26 16:19:00+00:00,250.3831,1.3,12.09,47.84626,-54.09684
2022-02-26 16:29:00+00:00,238.0314,1.3,12.09,47.84626,-54.09684
2022-02-26 16:39:00+00:00,234.3281,1.22,12.09,47.84626,-54.09684
2022-02-26 16:49:00+00:00,249.4247,1.3,12.09,47.84626,-54.09684
2022-02-26 16:59:00+00:00,246.9398,1.3,12.09,47.84626,-54.09684
2022-02-26 17:09:00+00:00,240.6531,1.3,12.09,47.84626,-54.09684
2022-02-26 17:19:01+00:00,251.9864,1.32,12.09,47.84626,-54.09684
2022-02-26 17:29:01+00:00,267.2765,1.35,12.09,47.84626,-54.09684
2022-02-26 17:39:01+00:00,263.1714,1.38,12.09,47.84626,-54.09684
2022-02-26 17:49:01+00:00,267.7031,1.38,12.09,47.84626,-54.09684
2022-02-26 17:59:01+00:00,287.283,1.38,12.09,47.84626,-54.09684
2022-02-26 18:09:01+00:00,289.3447,1.39,12.09,47.84626,-54.09684
2022-02-26 18:19:00+00:00,279.563,1.39,12.09,47.84626,-54.09684
2022-02-26 18:29:00+00:00,290.138,1.39,12.09,47.84626,-54.09684
2022-02-26 18:39:00+00:00,304.8431,1.4,12.09,47.84626,-54.09684
2022-02-26 18:49:00+00:00,301.283,1.5,12.09,47.84626,-54.09684
2022-02-26 18:59:00+00:00,305.473,1.45,12.09,47.84626,-54.09684
2022-02-26 19:09:00+00:00,318.318,1.42,12.09,47.84626,-54.09684
2022-02-26 19:19:00+00:00,325.5947,1.41,12.09,47.84626,-54.09684
2022-02-26 19:29:00+00:00,330.9214,1.4,12.09,47.84626,-54.09684
2022-02-26 19:39:00+00:00,337.3231,1.4,12.09,47.84626,-54.09684
2022-02-26 19:49:00+00:00,336.2646,1.48,12.09,47.84626,-54.09684
2022-02-26 19:59:00+00:00,329.0080000000001,1.46,12.09,47.84626,-54.09684
2022-02-26 20:09:00+00:00,330.1479,1.44,12.09,47.84626,-54.09684
2022-02-26 20:19:01+00:00,328.0931,1.5,12.09,47.84626,-54.09684
2022-02-26 20:29:01+00:00,320.8214,1.5,12.09,47.84626,-54.09684
2022-02-26 20:39:01+00:00,317.158,1.54,12.09,47.84626,-54.09684
2022-02-26 20:49:01+00:00,316.6763,1.5,12.09,47.84626,-54.09684
2022-02-26 20:59:01+00:00,310.6263,1.5,12.09,47.84626,-54.09684
2022-02-26 21:09:01+00:00,312.0064,1.5,12.09,47.84626,-54.09684
2022-02-26 21:19:00+00:00,316.9796,1.5,12.09,47.84626,-54.09684
2022-02-26 21:29:00+00:00,314.7863,1.5,12.09,47.84626,-54.09684
2022-02-26 21:39:00+00:00,303.4697,1.5,12.09,47.84626,-54.09684
2022-02-26 21:49:00+00:00,305.938,1.5,12.09,47.84626,-54.09684
2022-02-26 21:59:00+00:00,304.1814,1.5,12.09,47.84626,-54.09684
2022-02-26 22:09:00+00:00,295.0015,1.5,12.09,47.84626,-54.09684
2022-02-26 22:19:01+00:00,283.8013,1.5,12.09,47.84626,-54.09684
2022-02-26 22:29:01+00:00,290.3281,1.5,12.09,47.84626,-54.09684
2022-02-26 22:39:01+00:00,290.4264,1.5,12.09,47.84626,-54.09684
2022-02-26 22:49:01+00:00,277.7798,1.49,12.09,47.84626,-54.09684
2022-02-26 22:59:01+00:00,270.2814,1.49,12.09,47.84626,-54.09684
2022-02-26 23:09:01+00:00,272.5981,1.49,12.09,47.84626,-54.09684
2022-02-26 23:19:00+00:00,267.9631,1.5,12.09,47.84626,-54.09684
2022-02-26 23:29:00+00:00,255.4998,1.5,12.09,47.84626,-54.09684
2022-02-26 23:39:00+00:00,253.1731,1.5,12.09,47.84626,-54.09684
2022-02-26 23:49:00+00:00,251.8464,1.5,12.09,47.84626,-54.09684
2022-02-26 23:59:00+00:00,246.9364,1.5,12.09,47.84626,-54.09684
